Weather Roundup
Issued by NWS Chicago, IL

Home | Current Version | Previous Version | Text Only | Print | Product List | Glossary Off
Versions: 1 2 3 4 5 6 7 8 9 10 11 12 13 14 15 16 17 18 19 20 21 22 23 24 25 26 27 28 29 30 31 32 33 34 35 36 37 38 39 40 41 42 43 44 45 46 47 48 49 50

000
NZUS59 KLOT 230708
HRRLOT

CHICAGO AREA WEATHER ROUNDUP
NATIONAL WEATHER SERVICE CHICAGO/ROMEOVILLE IL
100 AM CST THU NOV 23 2017

NOTE: "FAIR" INDICATES FEW OR NO CLOUDS BELOW 12,000 FEET WITH NO
SIGNIFICANT WEATHER AND/OR OBSTRUCTIONS TO VISIBILITY.

* THESE STATIONS ARE NOT UNDER NWS QUALITY CONTROL. THEY ALSO MAY NOT
  REPORT WEATHER SUCH AS PRECIPITATION OR FOG.

ILZ005-006-012>014-019>023-230800-
NORTHEAST ILLINOIS

CITY           SKY/WX    TMP DP  RH WIND       PRES   REMARKS
OHARE          CLOUDY    33  18  53 SW8       30.15F WCI  26
MIDWAY         CLOUDY    33  19  56 SW9       30.16F WCI  25
AURORA         CLOUDY    31  22  69 S7        30.15F WCI  24
LANSING*       CLOUDY    31  23  72 S6        30.17F WCI  25
JOLIET*        CLOUDY    33  21  62 SW5       30.17F WCI  28
WAUKEGAN       CLOUDY    32  19  58 SW8       30.12F WCI  25
DUPAGE AIRPORT CLOUDY    31  20  63 SW8       30.14F WCI  23
WHEELING       CLOUDY    33  18  53 SW6       30.16F WCI  28
KANKAKEE*      CLOUDY    31  23  73 S7        30.18F WCI  24
MORRIS*        CLOUDY    31  22  67 S7        30.16F WCI  25
LEWIS AIRPORT* CLOUDY    32  21  64 SW7       30.16F WCI  25
NORTHERLY ISL    N/A     32  16  52 S5          N/A  WCI  27
$$

WIZ051-052-058>065-066-070>072-230800-
SOUTHEAST WISCONSIN

CITY           SKY/WX    TMP DP  RH WIND       PRES   REMARKS
MILWAUKEE      CLOUDY    32  20  61 SW8       30.11F WCI  25
KENOSHA*       CLOUDY    32  18  56 SW9       30.12F WCI  24
RACINE*        CLOUDY    32  19  58 SW7       30.13F WCI  26
BURLINGTON     CLOUDY    33  25  71 SW7       30.11F WCI  27
WAUKESHA       CLOUDY    30  18  59 SW5       30.11F WCI  25
WEST BEND      CLOUDY    30  18  59 SW7       30.08F WCI  23
$$

INZ001>003-010>013-019-020-230800-
NORTHWEST INDIANA

CITY           SKY/WX    TMP DP  RH WIND       PRES   REMARKS
GARY*          CLOUDY    33  17  53 S3        30.18S
MICHIGAN CITY* NOT AVBL
RENSSELAER*    NOT AVBL
VALPARAISO     CLOUDY    32  19  58 SW8       30.18F WCI  25
$$

LMZ740>746-230800-
SOUTHERN LAKE MICHIGAN

STATION/POSITION TIME  SKY/WX   TEMP WIND        PRES    VSBY
                                AIR  DIR/SP/G
                 (UTC)          (F)  (DEG/KT/KT) (MB)    (MI)
HARRISON CRIB    0640            34  210/ 14/ 15   N/A
BURNHAM HARBOR   0700            33  190/  4/ 10   N/A
CALUMET HARBOR   0642                200/  6/  8 1020.8F
BURNS HARBOR     0605            31  210/  8/ 12 1022.7
MICHIGAN CITY    0640            30  180/  8/  9   N/A
$$

ABBREVIATIONS USED IN REMARKS
   TC - TEMPERATURE IN CELSIUS
  WCI - WIND CHILL INDEX
   HX - HEAT INDEX
  VSB - VISIBILITY
$$



USA.gov is the U.S. government's official web portal to all federal, state and local government web resources and services.